SKYSAT-C2 (41773 NORAD) Tracking and Keplerian Element Data

This shows tracking and keplerian element data for the satellite.

Feedback or suggestion? Click here.




ElementValue
Catalog41773
NameSKYSAT-C2
Epoch Orbit10187
Epoch Day198.80629078
Epoch Year2018
RAAN269.4669
Inclination97.3508
Eccentricity0.0002075
Argument of Perigee98.5198
Mean Anonmoly40.8252
Mean Motion15.22967458
Decay Rate5.31E-06
L11 41773U 16058D 18198.80629078 .00000531 00000-0 25539-4 0 9996
L22 41773 97.3508 269.4669 0002075 98.5198 40.8252 15.22967458101879

Live tracking and technical data element details for SKYSAT-C2 (NORAD 41773). SKYSAT-C2 can be tracked NOW for your location showing map with azimuth and elevation plus other details from your city location.

Track the satellite on the map from your city or location and see movement details for azimuth, elevation, latitude, longitude, range, height, and movement on the map or in text.







IsCatalogInMostPopularTable: catalog: 41773, numindb: 68
Update: records affected: 1



GetName: 41773 SKYSAT-C2

Hit Count: updated at: Thu, 19 Jul 2018 21:28:53 GMT